Flag Weather past 2 weeks in Surgut, Russia

Now
34 °F

Low clouds.


Feels Like: 26 °F
Forecast: 29 / 33 °F
Wind: 10 mph from West

Location: Surgut Airport

Current Time: Oct 31, 2014 at 11:15:01 AM

Latest Report: Oct 31, 2014 at 10:30 AM


Visibility: 4 mi

Pressure: 29.83 "Hg

Humidity: 93%

Dew point: 32 °F

Location of SurgutLocation

Historic Weather in Surgut — Graph

°F

Surgut temperature yesterday

Maximum temperature yesterday: 32 °F (at 11:30 PM)
Minimum temperature yesterday: -6 °F (at 7:30 AM)
Average temperature yesterday: 9 °F

Past Weeks' High & Low Weather Summary

 TemperatureHumidityPressure
High36 °F (Oct 31, 2:30 AM)100% (Oct 18, 4:00 AM)30.33 "Hg (Oct 18, 4:00 AM)
Low-6 °F (Oct 26, 1:00 AM)62% (Oct 24, 5:00 PM)29.21 "Hg (Oct 21, 5:30 AM)
Average13 °F84%29.81 "Hg
* Reported Oct 16 11:00 AM — Oct 31 10:00 AM, Surgut, Weather by CustomWeather, © 2014

Note: Actual official high and low records may vary slightly from our data, if they occured in-between our weather recording intervals... More about our weather records

Advertising

Surgut weather history for previous 24 hours

 ConditionsComfort  
Time TempWeatherWind HumidityBarometerVisibility
10:00 AM
Oct 31
34 °FLow clouds.15 mph93%29.80 "Hg4 mi
9:30 AM36 °FBroken clouds.10 mph87%29.80 "Hg4 mi
9:00 AM36 °FPartly sunny.8 mph93%29.80 "Hg4 mi
8:30 AM36 °FOvercast.10 mph93%29.80 "Hg4 mi
8:00 AM36 °FLow clouds.10 mph93%29.80 "Hg4 mi
7:30 AM36 °FMostly cloudy.10 mph93%29.80 "Hg4 mi
7:00 AM36 °FOvercast.10 mph93%29.77 "Hg4 mi
6:30 AM36 °FOvercast.13 mph93%29.77 "Hg4 mi
6:00 AM36 °FOvercast.13 mph93%29.77 "Hg4 mi
5:30 AM36 °FOvercast.13 mph93%29.74 "Hg4 mi
5:00 AM36 °FOvercast.8 mph93%29.74 "Hg4 mi
4:30 AM36 °FLow clouds.8 mph93%29.74 "Hg4 mi
4:00 AM36 °FLow clouds.10 mph93%29.71 "Hg4 mi
3:30 AM36 °FLow clouds.13 mph93%29.71 "Hg4 mi
3:00 AM36 °FLow clouds.13 mph93%29.68 "Hg4 mi
2:30 AM36 °FLow clouds.13 mph93%29.68 "Hg4 mi
2:00 AM34 °FLow clouds.13 mph100%29.65 "Hg4 mi
1:30 AM34 °FLow clouds.10 mph100%29.65 "Hg4 mi
1:00 AM34 °FLow clouds.10 mph100%29.65 "Hg4 mi
12:30 AM34 °FLight rain. Low clouds.13 mph100%29.62 "Hg4 mi
12:00 AM34 °FLight rain. Low clouds.10 mph93%29.62 "Hg4 mi
11:30 PM
Oct 30
32 °FLow clouds.8 mph100%29.62 "Hg4 mi
11:00 PM30 °FLight snow. Ice fog.6 mph100%29.62 "Hg3 mi
10:30 PM28 °FLight snow. Low clouds.6 mph100%29.62 "Hg3 mi
10:00 PM27 °FLight snow. Low clouds.6 mph100%29.62 "Hg2 mi
9:30 PM27 °FLight snow. Low clouds.6 mph93%29.62 "Hg4 mi
9:00 PM25 °FMixture of precip. Low clouds.6 mph93%29.65 "Hg2 mi
8:30 PM23 °FMixture of precip. Low clouds.6 mph100%29.65 "Hg2 mi
8:00 PM21 °FMixture of precip. Low clouds.8 mph93%29.68 "Hg1 mi
7:30 PM19 °FMixture of precip. Low clouds.8 mph100%29.68 "Hg1 mi
7:00 PM19 °FLight snow. Low clouds.8 mph93%29.71 "Hg2 mi
6:30 PM18 °FLight snow. Low clouds.8 mph93%29.71 "Hg2 mi
6:00 PM16 °FLight snow. Low clouds.8 mph93%29.74 "Hg2 mi
5:30 PM14 °FLight snow. Low clouds.6 mph92%29.77 "Hg2 mi
5:00 PM14 °FSnow flurries. Scattered clouds.8 mph92%29.77 "Hg2 mi
4:30 PM14 °FSnow showers. Scattered clouds.8 mph85%29.77 "Hg1 mi
4:00 PM12 °FSnow flurries. More clouds than sun.6 mph92%29.80 "Hg2 mi
3:30 PM10 °FSnow flurries. More clouds than sun.8 mph92%29.80 "Hg4 mi
3:00 PM10 °FSnow flurries. More clouds than sun.6 mph85%29.83 "Hg3 mi
2:30 PM10 °FSnow showers. Scattered clouds.6 mph85%29.86 "Hg1 mi
2:00 PM10 °FSnow flurries. More clouds than sun.6 mph85%29.89 "Hg2 mi
1:30 PM10 °FMore clouds than sun.6 mph85%29.89 "Hg4 mi
1:00 PM9 °FBroken clouds.3 mph85%29.89 "Hg4 mi
12:00 PM7 °FMore clouds than sun.3 mph85%29.92 "Hg4 mi
11:00 AM3 °FPartly sunny.No wind85%29.92 "Hg4 mi
Weather by CustomWeather, © 2014

See weather overviewHow to use our weather pages